Flag for Australia Weather past 2 weeks in Albury, New South Wales, Australia

Now
39 °F

Clear.


Feels Like: 37 °F
Forecast: 39 / 64 °F
Wind: 3 mph from Northwest

Location: Albury Airport

Current Time: Aug 28, 2014 at 6:06:20 AM

Latest Report: Aug 28, 2014 at 5:00 AM


Visibility: 6 mi

Pressure: 30.36 "Hg

Humidity: 100%

Dew point: 39 °F

Location of AlburyLocation

Historic Weather in Albury — Graph

°F

Albury temperature yesterday

Maximum temperature yesterday: 66 °F (at 3:00 PM)
Minimum temperature yesterday: 39 °F (at 6:00 AM)
Average temperature yesterday: 51 °F

Past Weeks' High & Low Weather Summary

 TemperatureHumidityPressure
High68 °F (Aug 26, 3:00 PM)100% (Aug 13, 7:00 AM)30.57 "Hg (Aug 13, 7:00 AM)
Low30 °F (Aug 13, 6:00 AM)39% (Aug 25, 2:00 PM)29.86 "Hg (Aug 17, 1:00 PM)
Average49 °F78%30.26 "Hg
* Reported Aug 13 4:00 AM — Aug 28 4:00 AM, Albury, Weather by CustomWeather, © 2014

Note: Actual official high and low records may vary slightly from our data, if they occured in-between our weather recording intervals... More about our weather records

Advertising

Albury weather history for previous 24 hours

 ConditionsComfort  
Time TempWeatherWind HumidityBarometerVisibility
4:00 AM
Aug 28
39 °FClear.No wind93%30.33 "HgN/A
3:00 AM39 °FClear.3 mph100%30.33 "HgN/A
2:00 AM41 °FClear.No wind87%30.33 "HgN/A
1:00 AM41 °FClear.No wind93%30.33 "HgN/A
12:00 AM43 °FClear.5 mph87%30.33 "HgN/A
11:00 PM
Aug 27
45 °FClear.No wind87%30.33 "HgN/A
10:00 PM45 °FClear.No wind87%30.33 "HgN/A
9:00 PM48 °FClear.3 mph82%30.33 "HgN/A
8:00 PM50 °FClear.No wind76%30.30 "HgN/A
7:00 PM55 °FClear.2 mph63%30.30 "HgN/A
6:00 PM59 °FClear.5 mph55%30.27 "HgN/A
5:00 PM64 °FClear.5 mph43%30.27 "HgN/A
4:00 PM66 °FSunny.3 mph46%30.27 "HgN/A
3:00 PM66 °FSunny.6 mph43%30.27 "HgN/A
2:00 PM64 °FSunny.5 mph56%30.27 "HgN/A
1:00 PM63 °FSunny.2 mph59%30.27 "HgN/A
12:00 PM61 °FSunny.6 mph55%30.30 "HgN/A
11:00 AM59 °FSunny.3 mph63%30.33 "HgN/A
10:00 AM57 °FSunny.3 mph67%30.33 "HgN/A
9:00 AM54 °FSunny.No wind72%30.33 "HgN/A
8:00 AM46 °FSunny.No wind87%30.33 "HgN/A
7:00 AM39 °FSunny.No wind100%30.30 "HgN/A
6:00 AM39 °FSunny.No wind100%30.30 "HgN/A
Weather by CustomWeather, © 2014

See weather overviewHow to use our weather pages